DAL1187 KDTW-KBOS

Flight info

Callsign DAL1187
Flight time 1h 26m
Altitude 35000
Route HHOWE4 LNCON JHW Q82 PONCT JFUND2
Aircraft B738/M-SDE2E3FGHIRWXY/LB1

Departure

Time 2026-05-04 15:19
Airport Detroit Metropolitan Wayne County Airport (KDTW)

Arrival

Time 2026-05-04 16:45
Airport Boston Logan International Airport (KBOS)
Time Latitude Longitude Altitude Speed Heading
2026-05-04 15:00 42.20400 -83.36195 648 ft 0 kts 120°
2026-05-04 15:09 42.20408 -83.36212 648 ft 4 kts 117°
2026-05-04 15:09 42.20418 -83.36246 651 ft 4 kts 105°
2026-05-04 15:10 42.20413 -83.36306 651 ft 2 kts 29°
2026-05-04 15:10 42.20413 -83.36307 649 ft 1 kts 28°
2026-05-04 15:12 42.20420 -83.36301 651 ft 5 kts 28°
2026-05-04 15:12 42.20500 -83.36243 648 ft 20 kts 28°
2026-05-04 15:12 42.20627 -83.36148 649 ft 21 kts 29°
2026-05-04 15:12 42.20752 -83.36057 650 ft 20 kts 28°
2026-05-04 15:13 42.20873 -83.35968 648 ft 19 kts 28°
2026-05-04 15:13 42.20993 -83.35879 648 ft 23 kts 28°
2026-05-04 15:13 42.21164 -83.35752 648 ft 31 kts 28°
2026-05-04 15:13 42.21314 -83.35642 648 ft 23 kts 28°
2026-05-04 15:14 42.21452 -83.35541 648 ft 22 kts 28°
2026-05-04 15:14 42.21535 -83.35465 648 ft 13 kts 63°
2026-05-04 15:14 42.21550 -83.35301 648 ft 20 kts 89°
2026-05-04 15:14 42.21553 -83.35120 648 ft 19 kts 83°
2026-05-04 15:15 42.21633 -83.34985 648 ft 19 kts 43°
2026-05-04 15:15 42.21729 -83.34862 652 ft 20 kts 43°
2026-05-04 15:15 42.21831 -83.34705 649 ft 24 kts 76°
2026-05-04 15:16 42.21841 -83.34272 648 ft 25 kts 89°
2026-05-04 15:16 42.21938 -83.34102 648 ft 24 kts 27°
2026-05-04 15:16 42.22220 -83.33893 648 ft 22 kts 28°
2026-05-04 15:17 42.22356 -83.33798 649 ft 22 kts 28°
2026-05-04 15:17 42.22629 -83.33595 649 ft 16 kts 28°
2026-05-04 15:17 42.22703 -83.33660 651 ft 15 kts 284°
2026-05-04 15:18 42.22632 -83.33760 651 ft 23 kts 208°
2026-05-04 15:18 42.22289 -83.34014 651 ft 90 kts 209°
2026-05-04 15:18 42.21565 -83.34548 651 ft 146 kts 208°
2026-05-04 15:19 42.19653 -83.35996 1980 ft 153 kts 210°
2026-05-04 15:19 42.18611 -83.36108 2843 ft 164 kts 172°
2026-05-04 15:19 42.16044 -83.35357 3440 ft 217 kts 175°
2026-05-04 15:20 42.14474 -83.34901 3837 ft 234 kts 174°
2026-05-04 15:20 42.12854 -83.34418 4561 ft 240 kts 174°
2026-05-04 15:20 42.11252 -83.33711 5408 ft 250 kts 154°
2026-05-04 15:20 42.10021 -83.31976 6218 ft 270 kts 122°
2026-05-04 15:21 42.09581 -83.29402 6645 ft 297 kts 91°
2026-05-04 15:21 42.09698 -83.26580 7000 ft 307 kts 88°
2026-05-04 15:21 42.10339 -83.20916 7004 ft 307 kts 76°
2026-05-04 15:22 42.10877 -83.18131 6993 ft 306 kts 77°
2026-05-04 15:22 42.11397 -83.15358 6995 ft 305 kts 77°
2026-05-04 15:22 42.12714 -83.09872 7681 ft 312 kts 69°
2026-05-04 15:23 42.13481 -83.07148 8628 ft 309 kts 69°
2026-05-04 15:23 42.14240 -83.04444 9553 ft 309 kts 69°
2026-05-04 15:23 42.14999 -83.01713 10271 ft 314 kts 69°
2026-05-04 15:23 42.15783 -82.98863 10546 ft 336 kts 69°
2026-05-04 15:24 42.17501 -82.92546 11092 ft 375 kts 69°
2026-05-04 15:24 42.19304 -82.85839 12488 ft 384 kts 69°
2026-05-04 15:25 42.20216 -82.82431 13221 ft 388 kts 69°
2026-05-04 15:25 42.21135 -82.78997 13898 ft 392 kts 68°
2026-05-04 15:25 42.21752 -82.76690 14289 ft 395 kts 68°
2026-05-04 15:26 42.23947 -82.68467 15704 ft 405 kts 68°
2026-05-04 15:26 42.24872 -82.64852 16316 ft 411 kts 72°
2026-05-04 15:26 42.25321 -82.57058 17504 ft 422 kts 87°
2026-05-04 15:27 42.25375 -82.54370 17892 ft 426 kts 86°
2026-05-04 15:27 42.25646 -82.46363 18915 ft 433 kts 86°
2026-05-04 15:28 42.25672 -82.38108 19987 ft 440 kts 90°
2026-05-04 15:28 42.25601 -82.34019 20515 ft 443 kts 90°
2026-05-04 15:28 42.25454 -82.25634 21483 ft 450 kts 90°
2026-05-04 15:29 42.25392 -82.21394 21962 ft 453 kts 89°
2026-05-04 15:30 42.25179 -82.04141 23762 ft 465 kts 89°
2026-05-04 15:30 42.25008 -81.91094 25015 ft 470 kts 89°
2026-05-04 15:31 42.24883 -81.82278 25781 ft 474 kts 89°
2026-05-04 15:31 42.24818 -81.77814 26162 ft 476 kts 89°
2026-05-04 15:32 42.24608 -81.64326 27291 ft 482 kts 89°
2026-05-04 15:32 42.24460 -81.55252 27999 ft 485 kts 89°
2026-05-04 15:33 42.24314 -81.46099 28658 ft 489 kts 89°
2026-05-04 15:34 42.24132 -81.32262 29634 ft 493 kts 89°
2026-05-04 15:34 42.24068 -81.27646 30073 ft 491 kts 89°
2026-05-04 15:34 42.23932 -81.18494 30941 ft 485 kts 89°
2026-05-04 15:35 42.23789 -81.09393 31565 ft 485 kts 88°
2026-05-04 15:35 42.23714 -81.04845 31913 ft 484 kts 88°
2026-05-04 15:35 42.23638 -81.00306 32296 ft 482 kts 88°
2026-05-04 15:36 42.23483 -80.91439 32973 ft 480 kts 88°
2026-05-04 15:36 42.23403 -80.86932 33264 ft 480 kts 88°
2026-05-04 15:36 42.23320 -80.82421 33528 ft 481 kts 88°
2026-05-04 15:37 42.23236 -80.77913 33858 ft 479 kts 88°
2026-05-04 15:37 42.23149 -80.73426 34149 ft 478 kts 88°
2026-05-04 15:37 42.23062 -80.68932 34351 ft 479 kts 88°
2026-05-04 15:37 42.22972 -80.64435 34508 ft 481 kts 88°
2026-05-04 15:38 42.22881 -80.59923 34718 ft 482 kts 88°
2026-05-04 15:38 42.22788 -80.55395 34829 ft 484 kts 88°
2026-05-04 15:38 42.22594 -80.46274 34837 ft 486 kts 88°
2026-05-04 15:39 42.22392 -80.37196 34818 ft 482 kts 88°
2026-05-04 15:40 42.22079 -80.23693 34827 ft 478 kts 88°
2026-05-04 15:40 42.21864 -80.14732 34839 ft 477 kts 88°
2026-05-04 15:41 42.21642 -80.05777 34833 ft 478 kts 88°
2026-05-04 15:41 42.21418 -79.96973 34836 ft 479 kts 88°
2026-05-04 15:42 42.21179 -79.87918 34839 ft 480 kts 88°
2026-05-04 15:42 42.20936 -79.78957 34850 ft 482 kts 89°
2026-05-04 15:43 42.20683 -79.69890 34845 ft 485 kts 89°
2026-05-04 15:43 42.20421 -79.60787 34848 ft 486 kts 89°
2026-05-04 15:44 42.20151 -79.51674 34856 ft 486 kts 89°
2026-05-04 15:44 42.19875 -79.42565 34867 ft 486 kts 89°
2026-05-04 15:45 42.19592 -79.33464 34856 ft 486 kts 89°
2026-05-04 15:45 42.19302 -79.24360 34851 ft 485 kts 89°
2026-05-04 15:46 42.19008 -79.15341 34849 ft 483 kts 89°
2026-05-04 15:46 42.19483 -79.06421 34864 ft 473 kts 75°
2026-05-04 15:47 42.20659 -78.97773 34861 ft 472 kts 75°
2026-05-04 15:47 42.21839 -78.89056 34854 ft 472 kts 75°
2026-05-04 15:48 42.22966 -78.80337 34858 ft 472 kts 76°
2026-05-04 15:48 42.24612 -78.67242 34869 ft 472 kts 76°
2026-05-04 15:49 42.25701 -78.58496 34857 ft 472 kts 76°
2026-05-04 15:49 42.26786 -78.49750 34863 ft 473 kts 76°
2026-05-04 15:50 42.27866 -78.40990 34853 ft 474 kts 76°
2026-05-04 15:50 42.28943 -78.32198 34866 ft 474 kts 76°
2026-05-04 15:51 42.30007 -78.23447 34867 ft 475 kts 76°
2026-05-04 15:51 42.31072 -78.14635 34875 ft 476 kts 76°
2026-05-04 15:52 42.32139 -78.05741 34873 ft 477 kts 76°
2026-05-04 15:52 42.33176 -77.97038 34875 ft 477 kts 76°
2026-05-04 15:53 42.34225 -77.88187 34886 ft 477 kts 76°
2026-05-04 15:53 42.35267 -77.79328 34866 ft 477 kts 77°
2026-05-04 15:54 42.36292 -77.70464 34876 ft 477 kts 77°
2026-05-04 15:54 42.37309 -77.61585 34866 ft 478 kts 77°
2026-05-04 15:55 42.38321 -77.52702 34869 ft 477 kts 77°
2026-05-04 15:55 42.39320 -77.43874 34862 ft 477 kts 77°
2026-05-04 15:56 42.40318 -77.34996 34867 ft 477 kts 77°
2026-05-04 15:56 42.41307 -77.26135 34862 ft 476 kts 77°
2026-05-04 15:57 42.42289 -77.17276 34855 ft 476 kts 77°
2026-05-04 15:57 42.43266 -77.08406 34849 ft 476 kts 77°
2026-05-04 15:58 42.44223 -76.99675 34852 ft 476 kts 77°
2026-05-04 15:58 42.45209 -76.90810 34845 ft 476 kts 77°
2026-05-04 15:59 42.46193 -76.81934 34871 ft 476 kts 77°
2026-05-04 15:59 42.47163 -76.73066 34881 ft 477 kts 77°
2026-05-04 16:00 42.48122 -76.64158 34869 ft 477 kts 77°
2026-05-04 16:00 42.49076 -76.55241 34853 ft 478 kts 77°
2026-05-04 16:01 42.50018 -76.46386 34858 ft 478 kts 78°
2026-05-04 16:01 42.50961 -76.37457 34851 ft 478 kts 78°
2026-05-04 16:02 42.51872 -76.28758 34858 ft 479 kts 78°
2026-05-04 16:03 42.53242 -76.15337 34859 ft 479 kts 78°
2026-05-04 16:03 42.54114 -76.06704 34873 ft 479 kts 78°
2026-05-04 16:04 42.55001 -75.97868 34867 ft 479 kts 78°
2026-05-04 16:04 42.56302 -75.84783 34878 ft 479 kts 78°
2026-05-04 16:05 42.57183 -75.75848 34877 ft 479 kts 78°
2026-05-04 16:06 42.58499 -75.62390 34862 ft 479 kts 78°
2026-05-04 16:07 42.60237 -75.44438 34873 ft 479 kts 78°
2026-05-04 16:08 42.61939 -75.26550 34872 ft 479 kts 79°
2026-05-04 16:09 42.64034 -75.04107 34893 ft 479 kts 79°
2026-05-04 16:10 42.65532 -74.87758 34880 ft 479 kts 79°
2026-05-04 16:11 42.67152 -74.69772 34875 ft 479 kts 79°
2026-05-04 16:12 42.69500 -74.43109 34871 ft 479 kts 79°
2026-05-04 16:13 42.71045 -74.25158 34882 ft 480 kts 80°
2026-05-04 16:14 42.72568 -74.07139 34880 ft 482 kts 80°
2026-05-04 16:16 42.74436 -73.84554 34861 ft 483 kts 80°
2026-05-04 16:16 42.74784 -73.70860 34636 ft 490 kts 88°
2026-05-04 16:17 42.74611 -73.61601 33769 ft 485 kts 89°
2026-05-04 16:18 42.74444 -73.48017 32428 ft 472 kts 88°
2026-05-04 16:18 42.74405 -73.43577 32021 ft 467 kts 88°
2026-05-04 16:19 42.74286 -73.30475 30783 ft 456 kts 88°
2026-05-04 16:19 42.74195 -73.21908 29987 ft 450 kts 87°
2026-05-04 16:20 42.73935 -73.09310 28719 ft 439 kts 94°
2026-05-04 16:20 42.73001 -73.01171 27931 ft 432 kts 97°
2026-05-04 16:21 42.71524 -72.89329 26746 ft 422 kts 97°
2026-05-04 16:22 42.70601 -72.81500 25957 ft 416 kts 97°
2026-05-04 16:22 42.69247 -72.69952 24803 ft 409 kts 97°
2026-05-04 16:23 42.67897 -72.58631 23671 ft 403 kts 98°
2026-05-04 16:24 42.66078 -72.43723 22022 ft 395 kts 98°
2026-05-04 16:25 42.65185 -72.36442 21298 ft 389 kts 99°
2026-05-04 16:26 42.63461 -72.21926 19407 ft 393 kts 98°
2026-05-04 16:26 42.62174 -72.10848 17812 ft 398 kts 99°
2026-05-04 16:27 42.61296 -72.03389 16660 ft 400 kts 99°
2026-05-04 16:28 42.59931 -71.92388 15155 ft 398 kts 99°
2026-05-04 16:28 42.58540 -71.81273 13618 ft 396 kts 100°
2026-05-04 16:29 42.56261 -71.66954 12024 ft 377 kts 103°
2026-05-04 16:30 42.54651 -71.57136 11989 ft 334 kts 107°
2026-05-04 16:31 42.53414 -71.51252 11732 ft 318 kts 108°
2026-05-04 16:31 42.51593 -71.42639 10836 ft 316 kts 108°
2026-05-04 16:32 42.49789 -71.33920 9578 ft 321 kts 108°
2026-05-04 16:33 42.48631 -71.28086 8637 ft 318 kts 108°
2026-05-04 16:33 42.47500 -71.22405 8036 ft 307 kts 109°
2026-05-04 16:34 42.46462 -71.16899 7429 ft 297 kts 100°
2026-05-04 16:34 42.46661 -71.14177 7067 ft 295 kts 68°
2026-05-04 16:35 42.49372 -71.07000 6165 ft 276 kts 45°
2026-05-04 16:35 42.54023 -71.03850 5296 ft 241 kts 12°
2026-05-04 16:36 42.55610 -71.03099 4990 ft 242 kts 12°
2026-05-04 16:36 42.58734 -71.01587 4236 ft 236 kts 13°
2026-05-04 16:37 42.61696 -71.00115 3969 ft 215 kts 14°
2026-05-04 16:37 42.63078 -70.99431 4035 ft 213 kts 14°
2026-05-04 16:37 42.64941 -70.96524 3674 ft 223 kts 95°
2026-05-04 16:38 42.63372 -70.93631 3270 ft 189 kts 155°
2026-05-04 16:39 42.59945 -70.90866 3273 ft 191 kts 158°
2026-05-04 16:39 42.57653 -70.90731 3289 ft 165 kts 201°
2026-05-04 16:40 42.55378 -70.91455 3283 ft 168 kts 203°
2026-05-04 16:40 42.53201 -70.92427 3257 ft 165 kts 205°
2026-05-04 16:41 42.50984 -70.93493 2835 ft 168 kts 207°
2026-05-04 16:41 42.47751 -70.95058 2168 ft 161 kts 205°
2026-05-04 16:42 42.44772 -70.96500 1585 ft 148 kts 206°
2026-05-04 16:43 42.42954 -70.97380 1216 ft 130 kts 206°
2026-05-04 16:43 42.41274 -70.98192 843 ft 125 kts 208°
2026-05-04 16:43 42.40428 -70.98612 728 ft 137 kts 206°
2026-05-04 16:44 42.36914 -71.00314 29 ft 106 kts 199°
2026-05-04 16:45 42.36225 -71.00643 27 ft 26 kts 200°
2026-05-04 16:46 42.36235 -71.01078 26 ft 16 kts 295°
2026-05-04 16:46 42.36294 -71.01230 26 ft 23 kts 302°
2026-05-04 16:47 42.36396 -71.01433 26 ft 7 kts 335°
2026-05-04 16:47 42.36452 -71.01459 28 ft 1 kts 343°